Simultaneous Nadir Overpasses (SNOs) Predictions

Prediction of SNOs between AQUA and METOP-B Satellite Orbit:

Table of predicted SNOs for the next 14.0 days since TLE Epoch: 9/5/2025
Index Date (AQUA) Time (AQUA) Lat,Lon (AQUA) SZA (AQUA ) Date (METOP-B) Time (METOP-B) Lat,Lon (METOP-B) SZA (METOP-B ) Distance(km) Time Diff (sec)
1 09/07/2025 08:09:23 -77.90,-122.40 108.09 09/07/2025 08:08:24 -77.90,-122.23 108.10 3.90 59
2 09/07/2025 08:58:42 77.92, 45.17 71.95 09/07/2025 08:59:04 77.90, 45.10 71.92 2.99 22
3 09/09/2025 20:07:54 77.87,-121.84 72.83 09/09/2025 20:06:43 77.88,-121.91 72.84 1.94 71
4 09/09/2025 20:57:12 -77.92, 45.63 107.12 09/09/2025 20:57:24 -77.92, 45.58 107.12 1.32 12
5 09/12/2025 08:06:18 -77.66,-120.41 106.44 09/12/2025 08:05:11 -77.56,-123.03 106.54 63.56 67
6 09/12/2025 08:55:42 77.91, 46.13 73.82 09/12/2025 08:55:42 77.93, 46.05 73.85 3.25 0
7 09/12/2025 09:45:09 -78.33,-148.29 105.74 09/12/2025 09:46:13 -78.37,-144.33 105.68 89.06 64
8 09/14/2025 20:54:10 -77.92, 46.54 105.21 09/14/2025 20:54:02 -77.94, 46.48 105.19 3.00 8
9 09/14/2025 21:43:29 77.95,-145.96 74.84 09/14/2025 21:44:41 77.97,-146.03 74.86 2.70 72
10 09/17/2025 08:52:38 77.94, 46.91 75.78 09/17/2025 08:52:20 77.94, 46.84 75.78 1.45 18
11 09/17/2025 09:41:56 -77.97,-145.58 104.18 09/17/2025 09:43:01 -77.98,-145.62 104.17 1.30 65
12 09/19/2025 20:51:03 -77.96, 47.27 103.24 09/19/2025 20:50:39 -77.94, 47.24 103.26 2.49 24



Historial Predications of SNOs between AQUA and METOP-B
